Content
SEND FEEDBACK

Daily
Averages
Monthly
Summary
United States of America

ROBINS AIR FORCE BASE, GEORGIA


Home > North America > United States > Georgia
Elevation: 302 feet     Latitude: 32 37N     Longitude: 083 36W

WEATHER
 
SELECT A DAY
Number of Records: 209,770;   Date Range: 1/1/95 - 8/12/14
 
SHARE

PRINT THIS DATA

[ ← Previous Day ]
WEATHER ALMANAC - JANUARY 31, 2013
[ Next Day → ]
[ °C ]   °F
Weather ElementAverageHighLow
Temperature44.8 °F55 °F (2:53 pm)37 °F (6:53 am)
Dewpoint24.7 °F33.1 °F (1:53 am)19.9 °F (2:53 pm)
Humidity47.7 %67 % (7:53 am)25 % (2:53 pm)
Barometer30.10 in30.22 in (10:53 pm)29.92 in (1:53 am)
Wind Speed10.6 mph18.4 mph (3:53 am)
Wind Gust26.5 mph (1:53 am)
Weather ElementAverage
Visibility10 mi
Wind DirectionWNW (276.1 °)

Weather ElementTotal
Precipitation---
Heating Degree Days19 (Base 65)
Averaged from 23 records on January 31, 2013
WEATHER CONDITIONS BREAKOUT
WIND DIRECTION BREAKOUT
WEATHER BY HOUR - JANUARY 31, 2013
[ °C ]   °F
Local TimeTemperatureDewpointHumidityBarometerVisibilityWind DirectionWind SpeedGust SpeedPrecipitationEventsConditions
1:53 AM46.0 °F33.1 °F61 %29.92 in10.0 miWest (280°)16.1 mph26.5 mphScattered Clouds
2:53 AM43.0 °F30.9 °F62 %29.94 in10.0 miWest (280°)16.1 mphClear
3:53 AM42.1 °F28.9 °F60 %29.97 in10.0 miWNW (300°)18.4 mph26.5 mphClear
4:53 AM39.9 °F26.1 °F58 %29.99 in10.0 miWNW (290°)10.4 mph21.9 mphClear
5:53 AM39.0 °F26.1 °F60 %30.03 in10.0 miWNW (300°)9.2 mph18.4 mphClear
6:53 AM37.0 °F26.1 °F65 %30.05 in10.0 miWNW (300°)10.4 mph19.6 mphClear
7:53 AM37.0 °F27.0 °F67 %30.08 in10.0 miWNW (290°)6.9 mphClear
8:53 AM39.0 °F26.1 °F60 %30.09 in10.0 miWNW (300°)15.0 mph23.0 mphClear
9:53 AM42.1 °F26.1 °F53 %30.12 in10.0 miWNW (300°)15.0 mph21.9 mphClear
10:53 AM46.0 °F24.1 °F42 %30.12 in10.0 miNW (320°)12.7 mph20.7 mphClear
11:53 AM48.9 °F24.1 °F38 %30.14 in10.0 miWest (280°)12.7 mphClear
12:53 PM52.0 °F21.9 °F31 %30.14 in10.0 miNW (310°)16.1 mph25.3 mphClear
1:53 PM53.1 °F21.0 °F29 %30.11 in10.0 miWNW (290°)13.8 mph21.9 mphClear
2:53 PM55.0 °F19.9 °F25 %30.12 in10.0 miNW (310°)16.1 mph23.0 mphClear
3:53 PM55.0 °F19.9 °F25 %30.12 in10.0 miNNW (330°)17.3 mph25.3 mphClear
4:53 PM54.0 °F19.9 °F26 %30.13 in10.0 miWNW (290°)11.5 mphClear
5:53 PM50.0 °F19.9 °F31 %30.14 in10.0 miNW (310°)8.1 mphClear
6:53 PM45.0 °F23.0 °F42 %30.16 in10.0 miWSW (250°)3.5 mphClear
7:53 PM43.0 °F24.1 °F47 %30.19 in10.0 miWest (260°)3.5 mphClear
8:53 PM41.0 °F25.0 °F53 %30.20 in10.0 miWest (260°)4.6 mphClear
9:53 PM41.0 °F25.0 °F53 %30.20 in10.0 miWSW (240°)3.5 mphClear
10:53 PM41.0 °F25.0 °F53 %30.22 in10.0 miWest (260°)3.5 mphClear
11:53 PM39.9 °F25.0 °F55 %30.22 in10.0 miCalmClear
Hourly data recorded from KMCN, located miles away from Robins Air Force Base, Georgia







STORIES FROM OUR PARTNERS